Regional Weather Roundup
Issued by NWS

Home | Current Version | Previous Version | Text Only | Print | Product List | Glossary Off
Versions: 1 2 3 4 5 6 7 8 9 10 11 12 13 14 15 16 17 18 19 20 21 22 23 24 25 26 27 28 29 30 31 32 33 34 35 36 37 38 39 40 41 42 43 44 45 46 47 48 49 50

000
ASUS43 KLMK 230310
RWRKY
KENTUCKY REGIONAL WEATHER ROUNDUP
NATIONAL WEATHER SERVICE LOUISVILLE KY
1100 PM EDT TUE APR 22 2014

NOTE "FAIR" INDICATES FEW OR NO CLOUDS BELOW 12,000 FEET
WITH NO SIGNIFICANT WEATHER AND/OR OBSTRUCTIONS TO VISIBILITY.

KYZ001>023-026-027-061>063-070>075-230400-
WESTERN AND SOUTH CENTRAL KENTUCKY

CITY           SKY/WX    TMP DP  RH WIND       PRES   REMARKS
PADUCAH        CLEAR     60  39  45 NW5       29.98R
HENDERSON      CLEAR     55  37  50 NW5       29.98R
OWENSBORO      CLEAR     58  37  45 N5        29.98R
HOPKINSVILLE   CLEAR     56  40  55 N7        29.97R
BOWLING GREEN  CLEAR     60  37  42 NW3       29.95R
GLASGOW        CLEAR     56  36  46 CALM      29.94R
$$

KYZ024-025-028>034-038-045-046-053-230400-
NORTH CENTRAL KENTUCKY

CITY           SKY/WX    TMP DP  RH WIND       PRES   REMARKS
LOUISVILLE/SDF CLEAR     58  35  42 N12       29.96R
LOUISVILLE/LOU CLEAR     59  33  37 N7G16     29.97R
FORT KNOX      CLEAR     53  36  52 NW5       29.94R
$$

KYZ035>037-039>044-047>052-055>060-089>105-230400-
NORTHEAST KENTUCKY

CITY           SKY/WX    TMP DP  RH WIND       PRES   REMARKS
LEXINGTON      CLEAR     54  32  43 N16G24    29.95R
COVINGTON      CLEAR     49  30  48 N13       29.97R
FRANKFORT      CLEAR     55  30  38 N12       29.94R
$$

KYZ054-064>069-076>088-106>120-230400-
SOUTHEAST KENTUCKY

CITY           SKY/WX    TMP DP  RH WIND       PRES   REMARKS
JACKSON        CLEAR     58  29  33 NW8G18    29.90R
LONDON         CLEAR     59  33  37 N9        29.90R
SOMERSET       CLEAR     59  32  36 N10G20    29.93R
MIDDLESBORO    PTCLDY    64  45  50 N8G17     29.87S
MONTICELLO     CLEAR     60  37  42 NW9       29.93R
$$




USA.gov is the U.S. government's official web portal to all federal, state and local government web resources and services.